Regional Weather Roundup
Issued by NWS

Home | Current Version | Previous Version | Graphics & Text | Print | Product List | Glossary On
Versions: 1 2 3 4 5 6 7 8 9 10 11 12 13 14 15 16 17 18 19 20 21 22 23 24 25 26 27 28 29 30 31 32 33 34 35 36 37 38 39 40 41 42 43 44 45 46 47 48 49 50
000
ASUS43 KOAX 101810
RWRNE

WEATHER ROUNDUP FOR NEBRASKA
NATIONAL WEATHER SERVICE OMAHA NE
1200 PM CST SUN DEC 10 2017

NOTES: SATELLITE DATA IS BEING USED TO AUGMENT CLOUD COVER ABOVE
       12000 FEET.
       "FAIR" INDICATES FEW OR NO CLOUDS BELOW 12,000 FEET WITH NO
       SIGNIFICANT WEATHER AND/OR OBSTRUCTIONS TO VISIBILITY.


NEZ001>004-019>022-054>056-101900-
NEBRASKA PANHANDLE

CITY           SKY/WX    TMP DP  RH WIND       PRES   REMARKS
SCOTTSBLUFF    SUNNY     51  11  20 NW13      30.35F
6HR MIN TEMP:  22; 6HR MAX TEMP:  51;

ALLIANCE       SUNNY     58   7  13 NW15G25   30.29F
6HR MIN TEMP:  28; 6HR MAX TEMP:  58;

CHADRON        SUNNY     54  11  18 W16G23    30.29F
6HR MIN TEMP:  35; 6HR MAX TEMP:  54;

GORDON         FAIR      49  17  27 W18       30.25S
6HR MIN TEMP:  36; 6HR MAX TEMP:  49;

KIMBALL        SUNNY     54   5  13 NW18      30.38F
SIDNEY         SUNNY     57   4  12 NW20G28   30.36S
6HR MIN TEMP:  33; 6HR MAX TEMP:  57;

$$

NEZ057>060-069>072-079>082-101900-
SOUTHWEST NEBRASKA

CITY           SKY/WX    TMP DP  RH WIND       PRES   REMARKS
NORTH PLATTE   SUNNY     54  16  22 W16       30.25F
6HR MIN TEMP:  20; 6HR MAX TEMP:  54;

IMPERIAL       SUNNY     58   6  12 NW21G29   30.32F
6HR MIN TEMP:  32; 6HR MAX TEMP:  58;

LEXINGTON      SUNNY     56  13  18 W18       30.24S
MCCOOK         SUNNY     57  13  17 W18       30.28F
6HR MIN TEMP:  35; 6HR MAX TEMP:  57;

OGALLALA       SUNNY     57   9  14 W22G28    30.31S
$$

NEZ005>010-023>029-035>040-094-101900-
NORTH CENTRAL NEBRASKA

CITY           SKY/WX    TMP DP  RH WIND       PRES   REMARKS
VALENTINE      SUNNY     57  13  17 NW16G26   30.19F
6HR MIN TEMP:  32; 6HR MAX TEMP:  57;

AINSWORTH      SUNNY     55  15  21 NW24G31   30.17F
BROKEN BOW     SUNNY     59  12  15 NW21G30   30.19S
6HR MIN TEMP:  43; 6HR MAX TEMP:  60;

O`NEILL        SUNNY     52  20  28 NW16G22   30.14F
ORD            SUNNY     57  12  17 NW20      30.16F
6HR MIN TEMP:  39; 6HR MAX TEMP:  58;

THEDFORD       CLOUDY    59  15  18 NW17G23   30.22S
$$

NEZ041-046>049-061>064-073>077-083>087-101900-
SOUTH CENTRAL NEBRASKA

CITY           SKY/WX    TMP DP  RH WIND       PRES   REMARKS
GRAND ISLAND   SUNNY     58  16  19 NW20G30   30.17F
6HR MIN TEMP:  37; 6HR MAX TEMP:  58;

AURORA         SUNNY     56  17  22 NW22      30.16F
HASTINGS       SUNNY     57  14  18 NW16      30.18F
6HR MIN TEMP:  33; 6HR MAX TEMP:  57;

HEBRON         SUNNY     57  16  19 NW17G24   30.17S
HOLDREGE       SUNNY     58  18  21 W16       30.22F
KEARNEY        SUNNY     58  12  16 NW17G24   30.20F
YORK           SUNNY     55  18  22 NW18G26   30.15S
$$

NEZ011>018-030>034-042>045-101900-
NORTHEAST NEBRASKA

CITY           SKY/WX    TMP DP  RH WIND       PRES   REMARKS
NORFOLK        SUNNY     50  21  32 NW22      30.10S
6HR MIN TEMP:  38; 6HR MAX TEMP:  51;

ALBION         SUNNY     53  19  26 NW18G24   30.14F
BLAIR          SUNNY     48  28  45 NW14G20   30.09S
FREMONT        SUNNY     50  25  37 NW16      30.12S
TEKAMAH        SUNNY     50  26  39 NW15      30.10S
6HR MIN TEMP:  32; 6HR MAX TEMP:  50;

WAYNE          SUNNY     48  21  34 NW14G24   30.10S
$$

NEZ050>053-065>068-078-088>093-101900-
SOUTHEAST NEBRASKA

CITY           SKY/WX    TMP DP  RH WIND       PRES   REMARKS
LINCOLN        SUNNY     53  22  29 NW14G28   30.14F
6HR MIN TEMP:  31; 6HR MAX TEMP:  53;

OMAHA EPPLEY   MOSUNNY   49  26  41 NW15      30.10S
6HR MIN TEMP:  37; 6HR MAX TEMP:  49;

BEATRICE       SUNNY     55  23  29 NW17      30.15S
FALLS CITY     SUNNY     51  23  33 N14       30.11F
6HR MIN TEMP:  33; 6HR MAX TEMP:  51;

NEBRASKA CITY  SUNNY     49  26  40 N16       30.11S
PLATTSMOUTH    SUNNY     48  27  43 NW14      30.10F
$$

NEZ044-045-051>053-067-101900-
OMAHA AREA

CITY           SKY/WX    TMP DP  RH WIND       PRES   REMARKS
OMAHA EPPLEY   MOSUNNY   49  26  41 NW15      30.10S
6HR MIN TEMP:  37; 6HR MAX TEMP:  49;

BLAIR          SUNNY     48  28  45 NW14G20   30.09S
FREMONT        SUNNY     50  25  37 NW16      30.12S
MILLARD        SUNNY     50  27  40 NW13G18   30.11S
OFFUTT AFB     SUNNY     49  25  38 NW15      30.09F
PLATTSMOUTH    SUNNY     48  27  43 NW14      30.10F
WAHOO          FAIR      52  23  31 NW18      30.11F
$$




USA.gov is the U.S. government's official web portal to all federal, state and local government web resources and services.